SCP
0 0 -0 0 0 0 0 -0 -0 -0 0 -0 0 0 0 0 0 -0 -0 0 -0 -0 0 -0 -0 -0 0 0 -0 -0 0 0 0 0 0 0 0 0 0 0 0 0 0 0
0 -0 0 0 -0 0 0 -0 -0 -0 0 -0 0 -0 0 -0 0 0 -0 -0 -0 0 -0 -0 0 -0 -0 0 -0 -0 -0 -0 0 0 0 0 0 0 0 0 0 0 0 -0
-0 0 0 -0 0 0 -0 0 -0 -0 -0 -0 0 -0 0 0 0 0 0 0 0 0 -0 -0 -0 -0 -0 0 -0 -0 -0 -0 -0 0 0 0 0 0 0 0 0 0 -0 0
-0 -0 -0 0 -0 -0 -0 0 0 -0 -0 0 0 0 0 0 0 0 0 0 -0 -0 -0 -0 -0 -0 -0 -0 -0 -0 -0 -0 -0 -0 0 0 0 0 1 1 0 0 -0 -0
0 0 0 0 -0 0 -0 0 -0 -0 -0 0 -0 0 0 0 0 0 0 0 0 -0 -0 -0 -0 -0 -0 -0 -0 -0 -0 -0 -0 -0 0 0 0 0 0 0 0 0 -0 -0
-0 0 0 0 0 0 0 0 0 0 0 0 0 0 0 0 -0 -0 -0 0 0 -0 -0 -0 -0 -0 -0 -0 -0 -0 -0 -0 -0 -0 -0 -0 0 0 0 0 0 0 0 0
0 0 -0 0 0 0 0 0 0 0 0 0 0 0 0 0 0 0 0 -0 0 0 -0 -0 -0 -1 -0 -0 -0 -0 -0 -0 -0 -0 -0 -0 0 0 0 0 0 0 0 0
0 0 0 0 -0 0 0 -0 0 0 0 0 0 0 0 0 0 0 0 0 0 0 0 -0 -0 -1 -1 -0 -0 -0 -0 -0 -0 -0 -0 0 0 0 0 0 0 0 0 0
0 0 0 0 -0 -0 0 0 0 0 0 0 -0 0 0 0 0 0 0 0 0 0 0 0 -0 -0 -0 -0 -0 -0 -0 -0 -0 -0 0 0 0 -0 0 0 0 0 0 0
0 0 0 0 0 0 0 0 0 0 0 0 0 0 0 0 0 0 0 0 0 0 0 -0 -0 -0 -0 -0 -0 -0 -0 -0 -0 -0 -0 0 0 -0 0 0 -0 0 0 0
0 0 0 0 0 0 0 0 0 0 0 0 0 0 0 0 0 0 0 0 0 0 0 0 -0 -0 -0 -0 -0 -0 -0 -0 -0 -0 -0 0 0 0 0 -0 0 0 0 0
0 0 0 0 0 0 0 0 -0 0 0 0 0 -0 0 0 0 0 0 0 0 0 -0 0 0 -0 -0 -0 -0 -0 -0 -0 -0 0 -0 0 0 0 0 -0 0 0 0 0
0 0 0 0 0 0 0 0 0 0 0 0 0 0 0 0 0 0 0 0 0 0 0 0 0 0 -0 -0 -0 -0 -0 -0 -0 0 -0 -0 0 0 0 0 -0 0 0 0
0 0 0 0 0 0 0 0 0 0 0 0 0 0 0 0 0 0 0 0 0 0 0 0 0 0 -0 -0 -0 -0 -0 -0 -0 0 0 0 0 0 0 0 0 -0 0 0
0 0 0 0 0 0 0 0 0 0 0 0 0 0 0 0 0 0 0 0 0 0 0 0 0 0 0 0 -0 -0 -0 -0 -0 0 0 0 0 0 0 0 0 0 0 0
0 0 0 0 0 0 0 0 0 0 0 0 0 0 0 0 0 0 0 0 0 0 0 0 0 0 0 0 0 -0 -0 -0 -0 -0 0 0 0 0 0 0 0 0 0 0
0 0 0 0 0 0 0 0 0 0 0 0 0 0 0 0 1 0 0 0 0 0 0 1 0 0 0 0 0 -0 -0 -0 -0 0 0 0 0 0 0 0 0 0 0 0
0 0 0 0 0 0 0 0 0 0 0 0 0 0 1 1 0 1 1 1 1 0 0 1 1 0 0 0 0 -0 -0 -0 -0 -0 0 0 0 0 0 0 0 0 0 0
0 0 0 0 0 0 0 0 0 0 0 0 0 1 1 1 1 0 1 1 1 1 0 1 1 1 1 1 0 0 -0 -0 -0 -0 -0 0 0 1 1 0 0 1 1 1
0 0 0 0 0 0 0 0 0 0 0 0 0 0 0 0 1 1 1 0 0 1 0 0 1 2 1 1 1 0 0 0 -0 -0 -0 -0 0 1 1 1 1 1 0 0
0 0 0 0 0 0 0 0 0 0 0 0 0 0 0 0 0 0 0 0 0 0 1 0 1 1 2 1 1 0 0 0 0 0 0 0 0 0 1 3 1 1 0 0
0 0 0 0 0 0 0 0 0 0 0 0 0 0 0 0 0 0 0 0 0 0 0 0 1 1 3 1 1 0 0 0 0 0 1 0 0 -0 1 1 0 0 0 0
0 0 0 0 0 0 0 0 0 0 0 0 0 0 0 0 0 0 0 0 0 0 0 0 0 1 4 2 1 1 0 0 1 1 1 1 0 0 0 0 0 -0 -0 -0
0 0 0 0 0 0 0 0 0 0 0 0 0 0 0 0 0 0 0 0 -0 -0 0 0 0 1 2 4 2 1 1 1 1 1 1 1 0 0 0 -0 0 -0 -0 -0
0 0 0 0 0 0 0 0 0 0 0 0 0 0 0 0 0 0 0 0 -0 -0 0 0 0 1 1 2 2 2 1 1 1 1 1 1 0 0 0 0 0 0 0 0
0 0 0 0 0 0 0 0 0 0 0 0 0 0 0 0 0 0 0 0 -0 -0 0 0 0 1 1 2 2 2 2 1 1 1 1 2 1 2 0 0 0 0 0 0
Wind_Speed_500mb
13 20 24 22 9 16 18 22 23 22 9 25 21 24 28 18 30 35 37 40 44 49 45 45 45 42 37 35 35 34 33 31 27 25 26 31 30 37 40 35 27 24 26 24
16 29 29 2 18 18 19 22 22 20 13 23 23 31 31 22 24 34 39 44 47 45 48 51 47 46 43 40 38 37 35 33 29 24 27 28 32 33 36 34 26 27 28 27
26 3 11 11 18 17 24 24 19 26 30 33 18 30 5 10 9 21 35 41 45 50 51 53 51 47 46 45 42 40 38 36 32 28 24 26 28 36 35 35 28 28 31 27
18 22 22 25 24 23 27 1 13 25 29 24 17 22 26 5 13 16 22 28 38 48 51 51 51 48 48 47 43 42 41 38 33 29 24 26 26 35 34 29 28 27 32 29
8 5 11 22 23 15 24 3 21 24 29 29 33 13 13 3 12 24 16 8 25 40 50 52 53 49 47 46 45 42 39 37 33 27 23 27 33 29 28 29 31 31 30 28
27 13 15 19 6 14 14 24 26 28 21 24 6 10 14 6 22 24 16 3 18 34 46 47 48 45 45 46 43 41 40 40 34 29 23 29 30 31 31 34 32 31 25 28
20 30 35 20 24 28 21 29 20 14 18 14 11 16 12 17 15 20 18 6 15 30 45 48 48 50 50 49 46 43 41 43 39 31 25 31 29 30 32 35 35 33 29 26
14 12 19 10 22 13 19 19 13 16 17 17 6 11 10 18 10 18 11 3 13 25 38 45 47 52 53 51 48 47 43 43 40 33 27 31 33 30 31 36 34 32 30 27
6 11 6 13 21 20 16 22 15 22 22 18 22 7 22 8 15 19 19 6 11 25 36 43 46 50 51 52 50 51 46 41 39 34 29 33 33 32 33 32 34 33 31 27
4 15 5 3 8 23 21 17 16 20 26 28 16 8 20 6 16 17 23 25 4 18 31 42 45 47 48 50 50 50 49 48 31 35 30 34 35 35 30 31 33 32 30 31
8 10 18 13 20 16 13 21 20 24 18 22 25 16 11 6 12 16 23 31 21 10 23 37 46 47 48 47 49 51 50 46 46 38 31 37 38 36 36 32 35 33 32 34
4 13 23 30 30 14 28 32 31 21 26 22 20 26 2 3 9 11 20 32 30 16 15 27 39 46 49 49 49 51 52 50 46 42 39 38 40 40 37 36 34 34 34 36
9 13 19 25 30 22 26 18 24 23 25 31 29 23 12 7 2 30 31 35 34 29 8 16 30 41 46 48 50 51 53 52 53 49 44 39 41 42 40 38 36 33 32 35
7 25 30 27 32 26 25 27 24 25 21 29 31 26 29 8 22 36 34 32 33 29 16 11 22 32 38 43 49 50 51 49 51 52 45 45 46 48 44 41 41 36 37 30
12 27 26 27 31 32 36 39 40 42 37 35 37 38 29 22 31 33 30 29 30 29 26 15 16 26 35 40 44 48 50 50 51 55 55 51 46 49 48 45 41 40 36 32
11 17 16 29 33 37 40 43 42 43 44 48 44 47 41 47 21 27 28 29 31 31 30 26 19 26 34 41 46 47 52 53 54 55 61 52 51 48 49 45 41 44 45 39
22 19 16 28 17 23 27 32 31 31 35 35 38 39 12 23 22 22 17 27 30 33 34 35 28 25 33 37 43 48 50 51 56 57 59 55 50 48 45 47 47 44 41 36
26 18 19 21 15 27 5 7 11 17 18 15 23 17 18 18 24 12 14 25 31 36 36 35 31 24 27 31 38 44 48 56 59 59 53 58 55 47 44 44 45 40 37 39
27 24 19 17 22 27 32 13 10 15 2 14 17 16 21 29 36 22 18 30 34 39 39 35 35 28 25 31 36 45 49 53 58 59 58 59 62 52 43 43 42 42 43 43
11 19 19 14 19 22 10 9 9 6 16 16 19 22 28 32 19 15 40 39 38 40 41 41 40 32 23 29 36 45 51 51 54 59 66 63 58 58 61 51 44 49 45 40
17 16 25 24 26 20 15 14 7 26 7 26 24 26 29 22 30 45 43 42 39 41 43 41 35 31 20 26 39 46 47 51 49 53 59 61 58 59 51 45 44 40 35 34
12 11 15 11 21 30 16 5 14 27 30 38 40 38 36 38 44 44 41 40 41 40 41 38 33 28 20 20 37 45 45 43 45 52 59 63 52 42 44 54 37 36 42 34
10 8 12 10 10 13 31 37 25 37 48 49 43 45 41 44 46 46 43 38 39 38 35 35 32 29 14 20 31 40 40 41 45 54 59 61 48 44 32 35 42 48 56 47
12 18 17 24 14 24 37 50 50 37 32 41 51 51 49 51 48 47 44 38 37 37 32 35 34 27 20 14 27 33 33 40 47 53 53 50 52 48 44 47 53 52 47 44
27 28 29 33 41 44 42 34 30 43 39 44 43 47 48 46 48 44 44 38 35 36 34 33 34 32 30 12 29 34 35 40 46 46 47 48 46 47 42 44 44 42 42 41
28 22 20 25 46 39 47 52 45 48 45 38 43 46 46 43 45 42 41 33 34 36 34 35 35 34 33 25 35 38 41 43 44 44 43 42 42 46 42 46 50 50 41 42
Wind_Direction_500mb
198 251 238 259 21 304 296 293 308 327 3 329 321 298 296 283 222 234 228 215 210 208 204 201 201 199 199 202 200 200 198 203 207 209 217 221 215 218 213 205 197 196 200 198
236 239 254 243 266 276 274 279 291 307 323 315 305 305 292 280 251 236 235 230 221 212 203 200 201 204 202 204 203 202 201 208 212 214 222 226 221 217 212 201 198 195 197 195
252 258 8 247 247 244 248 266 296 318 316 293 295 300 331 244 256 252 243 239 227 216 206 200 198 202 202 204 203 204 209 215 216 208 221 233 221 213 208 191 193 201 194 194
261 268 245 248 249 252 260 11 293 302 311 311 330 307 304 54 292 242 255 244 227 212 209 202 198 200 204 206 205 205 211 216 217 225 222 221 204 204 191 183 189 194 192 198
138 202 212 236 246 246 261 70 281 299 295 300 286 265 312 155 333 356 347 279 218 207 202 201 200 202 204 203 204 204 203 207 207 222 219 212 201 190 178 185 191 178 196 199
270 265 263 260 272 239 291 278 273 259 271 271 89 307 306 50 338 351 355 333 201 194 193 197 198 199 199 200 200 200 201 215 213 226 224 197 197 187 180 179 183 184 189 193
236 235 227 230 248 236 231 260 267 246 216 280 94 289 317 315 28 353 351 13 184 187 187 190 192 191 190 194 195 197 202 214 218 225 210 199 192 189 187 180 176 183 185 193
280 187 165 157 232 308 213 264 295 284 277 308 78 264 11 8 19 8 7 84 166 188 190 192 193 194 192 192 193 194 202 212 209 214 214 199 193 192 188 181 187 185 186 190
282 233 135 220 275 250 180 227 283 288 245 262 271 277 257 115 69 23 32 336 191 190 192 197 195 198 199 195 195 195 208 204 208 203 215 200 196 192 175 184 186 188 191 193
36 273 152 90 243 234 259 338 244 219 265 264 268 268 271 340 11 5 19 22 304 205 196 196 200 200 203 202 201 197 206 206 202 200 210 202 198 197 192 190 190 196 202 194
297 261 273 240 238 282 187 226 226 279 292 288 282 267 78 325 4 357 17 25 7 265 213 202 200 202 203 202 202 201 203 202 210 201 206 198 200 198 197 196 197 202 206 210
46 292 273 273 297 289 274 280 283 252 255 236 281 284 326 47 343 24 15 15 6 331 251 215 203 198 200 201 201 200 201 200 202 205 210 201 202 197 199 198 203 204 207 211
8 266 280 262 232 207 245 233 272 278 282 267 278 274 123 172 318 42 13 0 4 359 297 224 209 201 200 201 200 200 201 206 203 205 205 201 201 203 200 203 202 205 208 207
291 269 265 276 302 319 285 268 253 274 270 271 261 265 270 277 358 355 350 357 355 1 341 254 222 212 205 202 202 200 201 202 199 202 203 205 205 205 201 202 204 205 210 213
261 267 276 278 282 282 276 272 272 271 264 268 279 283 297 309 335 343 350 352 1 358 352 318 251 223 214 206 202 203 201 199 198 202 207 209 211 209 206 206 205 204 214 221
225 274 273 278 273 270 275 271 266 262 266 272 266 264 280 289 307 324 351 357 358 351 344 335 300 240 225 216 208 204 199 198 196 201 206 209 211 211 210 209 209 214 221 229
267 271 273 275 296 290 267 260 259 274 267 272 267 276 322 307 310 324 355 1 354 348 343 335 325 264 236 228 218 207 200 193 197 203 204 205 211 209 211 214 216 217 219 222
252 246 272 269 280 259 10 20 310 286 280 311 310 323 360 307 301 290 11 3 355 349 340 335 323 305 245 230 217 203 199 198 199 201 202 204 209 210 206 210 213 213 215 222
231 243 254 248 247 273 285 265 316 310 60 29 343 340 328 322 301 182 7 357 349 346 341 327 322 303 256 227 211 203 200 200 200 200 203 207 206 205 201 203 208 208 208 217
212 232 242 225 268 282 65 51 346 296 240 24 349 334 329 329 294 89 345 342 337 336 340 327 326 317 270 224 211 204 205 202 200 201 205 208 210 216 220 205 205 207 212 219
212 227 237 248 259 260 52 328 307 248 335 341 338 330 328 320 312 306 314 318 322 327 332 329 325 323 284 227 211 210 209 207 201 200 201 199 202 214 211 200 212 207 202 224
269 280 264 247 274 264 45 244 307 342 319 315 311 307 306 309 308 308 308 312 316 319 325 330 320 321 297 235 211 214 214 207 198 194 194 194 201 196 198 194 202 212 233 221
265 262 319 269 306 310 302 298 303 301 303 302 301 297 291 298 300 303 305 307 308 310 313 321 315 315 313 248 216 217 215 203 192 187 191 199 206 181 190 200 220 212 221 227
254 252 256 297 279 287 295 299 299 298 295 295 291 287 286 284 289 296 301 302 300 301 300 309 316 307 285 251 224 216 211 201 192 193 196 202 207 184 190 209 204 208 212 221
285 290 270 270 273 278 283 288 291 301 294 295 295 284 280 277 279 285 292 298 300 295 295 303 308 299 286 217 223 207 205 195 191 190 188 191 201 208 199 189 193 199 203 205
281 280 270 275 292 302 298 292 290 288 286 292 301 295 284 271 274 280 283 289 297 294 291 292 295 295 288 253 214 199 195 190 184 184 182 184 188 192 186 192 192 191 203 204
Wind_Speed_850mb
13 20 24 22 9 16 18 22 23 22 9 25 21 24 28 18 30 35 37 40 44 49 45 45 45 42 37 35 35 34 33 31 27 25 26 31 30 37 40 35 27 24 26 24
16 29 29 2 18 18 19 22 22 20 13 23 23 31 31 22 24 34 39 44 47 45 48 51 47 46 43 40 38 37 35 33 29 24 27 28 32 33 36 34 26 27 28 27
26 3 11 11 18 17 24 24 19 26 30 33 18 30 5 10 9 21 35 41 45 50 51 53 51 47 46 45 42 40 38 36 32 28 24 26 28 36 35 35 28 28 31 27
18 22 22 25 24 23 27 1 13 25 29 24 17 22 26 5 13 16 22 28 38 48 51 51 51 48 48 47 43 42 41 38 33 29 24 26 26 35 34 29 28 27 32 29
8 5 11 22 23 15 24 3 21 24 29 29 33 13 13 3 12 24 16 8 25 40 50 52 53 49 47 46 45 42 39 37 33 27 23 27 33 29 28 29 31 31 30 28
27 13 15 19 6 14 14 24 26 28 21 24 6 10 14 6 22 24 16 3 18 34 46 47 48 45 45 46 43 41 40 40 34 29 23 29 30 31 31 34 32 31 25 28
20 30 35 20 24 28 21 29 20 14 18 14 11 16 12 17 15 20 18 6 15 30 45 48 48 50 50 49 46 43 41 43 39 31 25 31 29 30 32 35 35 33 29 26
14 12 19 10 22 13 19 19 13 16 17 17 6 11 10 18 10 18 11 3 13 25 38 45 47 52 53 51 48 47 43 43 40 33 27 31 33 30 31 36 34 32 30 27
6 11 6 13 21 20 16 22 15 22 22 18 22 7 22 8 15 19 19 6 11 25 36 43 46 50 51 52 50 51 46 41 39 34 29 33 33 32 33 32 34 33 31 27
4 15 5 3 8 23 21 17 16 20 26 28 16 8 20 6 16 17 23 25 4 18 31 42 45 47 48 50 50 50 49 48 31 35 30 34 35 35 30 31 33 32 30 31
8 10 18 13 20 16 13 21 20 24 18 22 25 16 11 6 12 16 23 31 21 10 23 37 46 47 48 47 49 51 50 46 46 38 31 37 38 36 36 32 35 33 32 34
4 13 23 30 30 14 28 32 31 21 26 22 20 26 2 3 9 11 20 32 30 16 15 27 39 46 49 49 49 51 52 50 46 42 39 38 40 40 37 36 34 34 34 36
9 13 19 25 30 22 26 18 24 23 25 31 29 23 12 7 2 30 31 35 34 29 8 16 30 41 46 48 50 51 53 52 53 49 44 39 41 42 40 38 36 33 32 35
7 25 30 27 32 26 25 27 24 25 21 29 31 26 29 8 22 36 34 32 33 29 16 11 22 32 38 43 49 50 51 49 51 52 45 45 46 48 44 41 41 36 37 30
12 27 26 27 31 32 36 39 40 42 37 35 37 38 29 22 31 33 30 29 30 29 26 15 16 26 35 40 44 48 50 50 51 55 55 51 46 49 48 45 41 40 36 32
11 17 16 29 33 37 40 43 42 43 44 48 44 47 41 47 21 27 28 29 31 31 30 26 19 26 34 41 46 47 52 53 54 55 61 52 51 48 49 45 41 44 45 39
22 19 16 28 17 23 27 32 31 31 35 35 38 39 12 23 22 22 17 27 30 33 34 35 28 25 33 37 43 48 50 51 56 57 59 55 50 48 45 47 47 44 41 36
26 18 19 21 15 27 5 7 11 17 18 15 23 17 18 18 24 12 14 25 31 36 36 35 31 24 27 31 38 44 48 56 59 59 53 58 55 47 44 44 45 40 37 39
27 24 19 17 22 27 32 13 10 15 2 14 17 16 21 29 36 22 18 30 34 39 39 35 35 28 25 31 36 45 49 53 58 59 58 59 62 52 43 43 42 42 43 43
11 19 19 14 19 22 10 9 9 6 16 16 19 22 28 32 19 15 40 39 38 40 41 41 40 32 23 29 36 45 51 51 54 59 66 63 58 58 61 51 44 49 45 40
17 16 25 24 26 20 15 14 7 26 7 26 24 26 29 22 30 45 43 42 39 41 43 41 35 31 20 26 39 46 47 51 49 53 59 61 58 59 51 45 44 40 35 34
12 11 15 11 21 30 16 5 14 27 30 38 40 38 36 38 44 44 41 40 41 40 41 38 33 28 20 20 37 45 45 43 45 52 59 63 52 42 44 54 37 36 42 34
10 8 12 10 10 13 31 37 25 37 48 49 43 45 41 44 46 46 43 38 39 38 35 35 32 29 14 20 31 40 40 41 45 54 59 61 48 44 32 35 42 48 56 47
12 18 17 24 14 24 37 50 50 37 32 41 51 51 49 51 48 47 44 38 37 37 32 35 34 27 20 14 27 33 33 40 47 53 53 50 52 48 44 47 53 52 47 44
27 28 29 33 41 44 42 34 30 43 39 44 43 47 48 46 48 44 44 38 35 36 34 33 34 32 30 12 29 34 35 40 46 46 47 48 46 47 42 44 44 42 42 41
28 22 20 25 46 39 47 52 45 48 45 38 43 46 46 43 45 42 41 33 34 36 34 35 35 34 33 25 35 38 41 43 44 44 43 42 42 46 42 46 50 50 41 42
Wind_Direction_850mb
198 251 238 259 21 304 296 293 308 327 3 329 321 298 296 283 222 234 228 215 210 208 204 201 201 199 199 202 200 200 198 203 207 209 217 221 215 218 213 205 197 196 200 198
236 239 254 243 266 276 274 279 291 307 323 315 305 305 292 280 251 236 235 230 221 212 203 200 201 204 202 204 203 202 201 208 212 214 222 226 221 217 212 201 198 195 197 195
252 258 8 247 247 244 248 266 296 318 316 293 295 300 331 244 256 252 243 239 227 216 206 200 198 202 202 204 203 204 209 215 216 208 221 233 221 213 208 191 193 201 194 194
261 268 245 248 249 252 260 11 293 302 311 311 330 307 304 54 292 242 255 244 227 212 209 202 198 200 204 206 205 205 211 216 217 225 222 221 204 204 191 183 189 194 192 198
138 202 212 236 246 246 261 70 281 299 295 300 286 265 312 155 333 356 347 279 218 207 202 201 200 202 204 203 204 204 203 207 207 222 219 212 201 190 178 185 191 178 196 199
270 265 263 260 272 239 291 278 273 259 271 271 89 307 306 50 338 351 355 333 201 194 193 197 198 199 199 200 200 200 201 215 213 226 224 197 197 187 180 179 183 184 189 193
236 235 227 230 248 236 231 260 267 246 216 280 94 289 317 315 28 353 351 13 184 187 187 190 192 191 190 194 195 197 202 214 218 225 210 199 192 189 187 180 176 183 185 193
280 187 165 157 232 308 213 264 295 284 277 308 78 264 11 8 19 8 7 84 166 188 190 192 193 194 192 192 193 194 202 212 209 214 214 199 193 192 188 181 187 185 186 190
282 233 135 220 275 250 180 227 283 288 245 262 271 277 257 115 69 23 32 336 191 190 192 197 195 198 199 195 195 195 208 204 208 203 215 200 196 192 175 184 186 188 191 193
36 273 152 90 243 234 259 338 244 219 265 264 268 268 271 340 11 5 19 22 304 205 196 196 200 200 203 202 201 197 206 206 202 200 210 202 198 197 192 190 190 196 202 194
297 261 273 240 238 282 187 226 226 279 292 288 282 267 78 325 4 357 17 25 7 265 213 202 200 202 203 202 202 201 203 202 210 201 206 198 200 198 197 196 197 202 206 210
46 292 273 273 297 289 274 280 283 252 255 236 281 284 326 47 343 24 15 15 6 331 251 215 203 198 200 201 201 200 201 200 202 205 210 201 202 197 199 198 203 204 207 211
8 266 280 262 232 207 245 233 272 278 282 267 278 274 123 172 318 42 13 0 4 359 297 224 209 201 200 201 200 200 201 206 203 205 205 201 201 203 200 203 202 205 208 207
291 269 265 276 302 319 285 268 253 274 270 271 261 265 270 277 358 355 350 357 355 1 341 254 222 212 205 202 202 200 201 202 199 202 203 205 205 205 201 202 204 205 210 213
261 267 276 278 282 282 276 272 272 271 264 268 279 283 297 309 335 343 350 352 1 358 352 318 251 223 214 206 202 203 201 199 198 202 207 209 211 209 206 206 205 204 214 221
225 274 273 278 273 270 275 271 266 262 266 272 266 264 280 289 307 324 351 357 358 351 344 335 300 240 225 216 208 204 199 198 196 201 206 209 211 211 210 209 209 214 221 229
267 271 273 275 296 290 267 260 259 274 267 272 267 276 322 307 310 324 355 1 354 348 343 335 325 264 236 228 218 207 200 193 197 203 204 205 211 209 211 214 216 217 219 222
252 246 272 269 280 259 10 20 310 286 280 311 310 323 360 307 301 290 11 3 355 349 340 335 323 305 245 230 217 203 199 198 199 201 202 204 209 210 206 210 213 213 215 222
231 243 254 248 247 273 285 265 316 310 60 29 343 340 328 322 301 182 7 357 349 346 341 327 322 303 256 227 211 203 200 200 200 200 203 207 206 205 201 203 208 208 208 217
212 232 242 225 268 282 65 51 346 296 240 24 349 334 329 329 294 89 345 342 337 336 340 327 326 317 270 224 211 204 205 202 200 201 205 208 210 216 220 205 205 207 212 219
212 227 237 248 259 260 52 328 307 248 335 341 338 330 328 320 312 306 314 318 322 327 332 329 325 323 284 227 211 210 209 207 201 200 201 199 202 214 211 200 212 207 202 224
269 280 264 247 274 264 45 244 307 342 319 315 311 307 306 309 308 308 308 312 316 319 325 330 320 321 297 235 211 214 214 207 198 194 194 194 201 196 198 194 202 212 233 221
265 262 319 269 306 310 302 298 303 301 303 302 301 297 291 298 300 303 305 307 308 310 313 321 315 315 313 248 216 217 215 203 192 187 191 199 206 181 190 200 220 212 221 227
254 252 256 297 279 287 295 299 299 298 295 295 291 287 286 284 289 296 301 302 300 301 300 309 316 307 285 251 224 216 211 201 192 193 196 202 207 184 190 209 204 208 212 221
285 290 270 270 273 278 283 288 291 301 294 295 295 284 280 277 279 285 292 298 300 295 295 303 308 299 286 217 223 207 205 195 191 190 188 191 201 208 199 189 193 199 203 205
281 280 270 275 292 302 298 292 290 288 286 292 301 295 284 271 274 280 283 289 297 294 291 292 295 295 288 253 214 199 195 190 184 184 182 184 188 192 186 192 192 191 203 204